RH
10 13 14 12 14 16 16 16 16 14 12 12 11 10 9 8 7 5 8 10 9 10 9 7 8 8 7 8 8 7 9 9 9 11 13 13 14 15 14 18 27 31 31 33 33 31 31 31 34 39 44 54 60 60 63 63 58 63 69 73 74 68 60 55 52 48 44 43 44 45 45 46 47 45 46 48 52 55 57 60 59 59 63 66 66 64
12 14 14 13 17 19 17 18 17 15 15 13 12 11 9 9 8 6 8 10 9 11 10 7 8 9 9 9 9 9 10 10 9 11 12 13 13 12 13 14 21 32 34 32 31 30 28 33 42 48 53 59 62 64 68 64 61 63 66 70 71 65 56 51 48 44 42 41 41 42 42 42 41 40 41 44 49 54 56 57 55 55 58 60 62 61
14 13 13 15 17 17 17 17 16 16 16 14 11 11 11 8 7 9 12 11 10 11 10 8 9 11 10 8 9 10 10 10 9 10 11 12 12 12 12 13 17 28 37 34 31 31 28 34 48 54 57 62 62 65 68 65 64 66 67 69 69 62 52 48 48 44 42 44 43 41 40 39 41 45 47 45 48 50 52 56 58 61 61 60 59 59
13 12 13 15 15 16 18 18 18 17 16 15 12 10 10 8 7 11 14 14 12 12 11 11 11 12 11 9 10 12 10 9 10 11 12 11 12 13 11 13 15 20 30 34 36 37 34 36 47 52 57 61 62 63 64 63 64 66 69 69 67 60 49 48 49 45 47 52 49 46 44 43 43 46 48 47 49 51 52 58 63 66 66 63 60 59
11 12 13 14 15 15 19 21 20 17 14 14 13 11 10 9 9 11 14 17 17 17 15 13 14 14 12 10 11 11 10 11 11 12 14 13 13 14 13 14 16 18 22 28 36 41 40 40 43 48 53 58 62 61 60 62 63 64 67 69 67 58 49 49 49 49 54 56 54 53 50 46 42 41 43 46 48 51 51 56 61 64 65 63 61 60
10 14 13 13 14 13 17 20 19 18 14 13 14 14 12 10 12 13 16 20 20 19 16 13 15 15 10 9 10 11 12 12 11 11 12 13 13 13 15 16 18 20 21 23 31 36 39 41 41 46 50 53 58 59 60 62 63 63 65 68 66 57 51 49 51 55 54 51 51 49 44 40 37 39 43 46 47 48 49 52 58 61 63 64 63 61
11 14 11 13 16 14 16 17 16 18 15 13 14 14 13 11 14 16 16 18 18 16 17 16 18 17 11 9 10 11 13 13 11 11 9 9 10 10 11 12 15 18 20 22 25 27 33 40 41 44 47 50 53 56 61 64 64 64 64 67 65 56 52 49 53 58 50 45 45 41 37 34 35 39 42 46 49 48 49 54 60 63 65 66 65 62
12 14 12 15 17 17 16 14 14 16 15 16 17 14 12 11 13 16 16 17 15 13 18 18 16 18 14 11 11 12 14 13 12 13 11 9 10 10 10 10 11 15 18 22 24 26 32 37 41 43 45 48 51 55 61 65 66 63 62 68 65 55 51 50 55 56 47 45 44 39 36 33 34 41 45 47 48 47 50 55 59 62 63 64 64 63
14 15 15 15 17 16 14 12 13 15 15 17 18 14 12 11 12 15 16 16 15 15 19 17 15 19 17 11 11 13 15 14 13 14 13 12 11 11 13 14 14 16 19 20 21 25 28 32 37 41 44 46 49 54 60 64 67 63 62 68 63 54 53 51 54 54 47 47 45 39 37 34 36 42 43 44 45 47 51 55 57 57 58 61 63 63
14 13 12 12 14 14 11 9 10 14 16 16 16 14 12 12 12 15 17 16 17 20 22 19 16 19 17 12 11 15 16 14 12 12 13 15 14 14 16 18 17 16 17 17 17 20 24 26 31 37 43 45 47 53 57 63 66 62 64 69 62 55 54 52 53 53 49 48 45 41 37 34 38 40 38 41 45 47 50 53 55 54 53 57 60 58
11 10 10 10 11 10 8 9 10 12 14 15 16 13 13 14 14 16 17 17 21 23 22 18 16 18 20 15 10 15 18 15 12 14 16 15 14 15 18 16 14 14 16 16 16 19 23 25 27 32 40 45 48 51 55 62 64 62 66 68 60 56 55 54 54 52 51 49 45 42 38 36 39 39 38 42 46 47 48 50 51 50 49 52 55 54
10 10 9 9 8 8 8 10 11 11 11 14 15 14 17 20 19 21 20 21 26 25 19 15 14 19 22 15 9 13 17 15 13 15 17 16 15 16 17 14 14 16 18 17 18 22 25 28 28 28 37 45 48 50 55 61 61 62 67 65 58 56 54 55 54 50 52 51 46 43 40 38 41 40 41 45 46 46 48 48 48 49 49 50 52 52
13 10 8 8 8 8 9 9 10 11 11 14 15 17 23 25 26 29 27 25 26 24 19 15 16 20 19 13 10 14 15 14 14 14 15 17 18 19 17 15 17 19 20 20 23 27 29 31 30 29 37 44 48 51 54 58 60 63 65 60 55 54 54 56 54 49 52 51 47 45 42 40 42 42 42 45 46 46 46 46 47 48 48 49 50 49
14 11 8 9 9 8 9 9 11 13 13 14 15 19 24 27 31 33 29 25 23 22 19 16 19 21 16 11 12 15 14 13 14 14 16 18 20 21 17 16 18 21 23 23 27 33 35 35 33 36 42 44 47 51 53 56 59 61 60 54 52 54 55 57 53 48 51 52 49 47 44 42 42 43 42 44 45 45 44 44 45 45 46 47 49 50
14 13 10 10 11 9 8 7 9 11 13 14 12 15 20 23 28 29 25 23 21 21 21 20 22 20 17 18 16 15 14 12 12 14 17 18 19 20 19 18 20 23 27 29 34 42 43 41 42 44 45 44 46 50 51 54 56 57 58 53 52 55 56 56 53 47 48 52 51 48 45 43 41 43 42 40 43 44 43 44 44 42 44 46 48 51
13 13 10 10 10 9 9 7 7 8 12 13 10 14 18 17 19 22 22 22 21 22 22 21 21 16 17 22 17 13 14 11 12 14 16 18 18 20 21 22 24 27 31 33 39 47 47 46 48 48 45 44 47 50 50 53 55 56 57 54 53 54 55 56 53 49 47 51 52 49 46 44 42 42 41 38 41 44 43 44 45 41 42 45 48 52
14 11 8 10 9 7 8 8 8 9 11 12 12 16 16 11 14 19 21 23 24 25 22 18 19 16 17 21 15 13 13 11 12 13 14 18 21 23 25 27 28 31 35 37 40 48 49 45 47 47 46 46 48 49 50 52 54 55 57 55 51 50 52 54 54 50 47 47 51 51 49 47 45 43 41 38 39 45 45 45 46 42 42 45 48 54
17 15 9 9 10 8 8 9 8 8 9 11 13 14 11 9 12 16 21 25 26 27 22 17 18 17 17 19 16 14 14 13 13 11 14 18 20 23 27 30 33 35 38 39 40 46 49 47 46 46 47 49 50 50 50 51 53 55 55 51 47 48 50 52 52 51 48 48 51 52 50 50 50 48 46 40 39 45 48 48 46 43 43 45 48 56
18 19 12 8 9 9 8 10 10 8 8 9 10 9 11 16 17 16 21 26 28 28 24 19 18 16 15 18 18 16 15 14 13 12 14 17 18 23 28 31 36 39 40 41 41 46 49 49 48 47 48 49 51 52 51 52 53 54 52 48 48 50 51 51 51 51 50 48 48 51 53 54 53 52 51 47 44 47 50 49 47 45 45 46 49 58
19 22 17 8 8 10 10 11 12 10 8 8 9 8 10 14 16 16 18 21 25 28 26 23 20 17 17 18 17 17 17 15 14 14 14 16 19 24 28 31 37 41 41 40 41 45 49 50 50 51 52 51 52 53 52 51 50 49 50 50 50 50 50 51 53 53 54 52 53 55 55 54 54 52 51 49 49 51 52 48 45 45 48 48 49 58
18 22 22 14 9 12 14 12 11 10 10 11 13 13 13 13 13 15 16 16 18 23 24 25 24 18 16 15 14 16 18 16 15 15 15 17 22 26 30 33 36 41 42 40 39 41 45 49 51 52 54 55 57 57 55 54 50 47 49 50 49 50 50 51 54 56 56 56 56 54 52 56 59 55 51 49 50 52 53 49 45 45 48 49 51 56
18 20 23 20 14 14 13 10 10 11 12 13 15 15 15 15 16 19 21 17 15 18 20 23 25 20 16 15 13 14 17 15 14 15 16 19 25 30 34 35 36 39 40 39 38 37 38 42 45 48 51 54 57 58 59 58 55 51 51 50 49 51 51 49 52 54 53 53 52 50 52 60 62 60 57 52 52 57 57 53 50 48 45 45 49 54
22 21 22 21 17 13 10 9 11 12 12 12 14 14 14 16 17 22 25 23 19 18 17 19 22 22 20 18 15 14 15 14 14 15 17 22 28 33 35 35 36 37 37 36 36 35 35 36 38 42 45 48 53 57 59 60 59 58 58 58 59 60 59 56 55 54 53 53 54 55 59 62 59 58 57 52 51 58 62 59 56 54 50 46 45 49
24 22 20 17 12 8 7 7 8 9 11 13 14 13 14 15 14 16 19 21 24 23 21 23 24 25 26 21 16 16 15 15 16 15 18 26 31 33 33 34 36 36 36 35 34 33 32 31 31 33 36 40 43 48 51 54 56 58 60 61 64 66 67 67 65 61 56 55 57 61 64 65 62 61 59 57 54 53 56 60 59 56 56 54 49 47
25 22 19 18 17 16 14 10 9 10 12 14 15 13 13 12 14 18 19 21 27 27 23 24 24 27 33 25 16 17 16 15 17 16 19 29 33 32 33 34 35 36 36 35 34 33 31 28 27 27 28 30 33 37 39 41 44 47 50 54 57 61 65 69 71 70 66 64 65 67 68 67 70 71 67 65 68 67 63 62 61 58 59 61 56 51
23 23 22 23 26 26 21 16 13 14 15 16 17 14 12 13 18 24 25 26 31 27 22 23 21 24 31 25 17 18 17 17 18 17 19 27 30 30 32 35 35 36 36 36 36 36 34 31 29 28 28 27 27 29 31 32 34 36 40 43 44 47 52 57 62 65 67 68 70 73 74 72 74 76 70 66 76 87 83 73 67 63 61 62 59 56
23 25 24 24 26 24 20 16 13 15 18 18 19 17 16 17 21 26 29 30 29 25 22 22 21 24 27 23 20 20 18 18 19 18 18 22 26 29 32 33 33 33 34 35 36 36 36 36 35 33 32 29 27 27 27 28 31 34 37 38 37 39 44 47 49 50 53 58 63 66 69 71 73 76 76 75 78 84 84 78 72 66 62 62 61 58
26 26 26 26 26 21 18 17 14 13 15 16 17 19 19 18 20 25 30 30 28 28 26 22 21 25 24 20 20 20 20 20 20 20 19 21 26 30 30 30 30 31 32 33 35 36 36 38 38 37 35 32 30 29 28 29 32 34 36 36 37 40 43 45 43 41 43 48 52 53 52 53 55 56 56 61 68 72 72 73 72 69 67 66 64 60
28 28 26 26 25 21 18 17 15 13 14 14 16 19 20 20 21 24 28 28 29 32 30 25 25 28 25 21 19 18 19 19 19 20 20 21 26 27 27 28 27 27 30 31 34 36 36 38 39 39 37 33 30 30 30 30 32 34 35 35 36 37 38 40 38 36 37 39 41 43 42 43 45 46 46 52 62 67 67 67 68 68 69 68 66 64
30 31 27 25 24 22 18 17 15 14 16 17 17 17 18 19 21 23 25 25 26 29 28 27 32 34 28 23 21 17 17 18 18 20 20 21 25 25 25 25 24 23 25 28 33 34 35 37 38 38 37 35 32 31 31 30 30 32 34 34 35 34 33 34 33 32 31 31 32 33 33 35 39 43 46 51 57 59 60 62 62 62 64 66 66 66
32 35 29 26 28 25 20 17 16 16 18 19 19 17 18 19 21 22 24 24 26 27 27 30 40 39 28 22 21 18 17 18 18 19 19 20 23 24 24 23 22 21 22 27 31 32 33 35 36 36 36 36 34 33 33 32 30 31 34 33 31 30 30 32 32 31 30 28 27 27 26 27 29 31 34 39 44 49 52 55 56 57 58 59 63 66
33 35 28 26 31 28 21 19 20 17 18 21 22 21 21 23 24 24 24 24 26 29 31 36 42 37 25 21 23 20 18 18 18 19 19 19 20 23 24 22 21 21 23 27 29 29 31 32 35 37 35 34 32 30 31 30 28 30 34 33 30 29 30 32 32 32 31 28 25 24 22 23 24 25 27 30 35 41 45 49 51 53 54 53 57 63
30 33 29 28 34 32 23 20 21 23 27 29 27 25 24 22 22 22 21 22 24 26 30 33 33 28 23 24 28 27 23 21 20 20 20 19 21 24 24 22 21 22 25 28 27 28 30 30 33 37 36 33 31 30 30 29 29 34 37 35 33 31 30 30 29 30 30 28 26 24 23 24 23 23 25 27 30 35 40 45 46 48 51 53 57 63
29 32 31 30 35 35 27 23 27 35 38 34 28 27 28 26 25 26 25 25 25 26 29 31 30 27 27 28 30 30 29 26 25 24 23 23 25 27 26 23 22 24 28 28 26 27 30 31 34 37 37 35 34 34 34 32 34 38 38 35 34 33 31 29 27 28 29 28 27 26 26 26 26 26 27 27 28 31 35 40 42 46 50 51 54 60
31 33 32 30 33 34 28 29 40 46 38 30 28 29 28 28 27 28 29 26 25 30 34 34 32 29 28 29 28 29 30 29 28 27 26 25 27 30 29 25 25 28 30 29 28 30 34 36 36 37 37 36 35 34 33 33 35 37 36 34 34 34 33 30 28 28 28 27 27 27 28 29 29 29 30 30 30 30 32 37 42 47 49 48 50 54
30 32 30 29 30 31 30 34 43 41 28 23 29 29 27 28 26 28 33 29 25 32 37 33 30 28 27 27 27 27 29 29 27 25 25 27 29 31 30 28 28 29 29 31 34 36 39 38 35 35 38 37 34 32 30 31 34 35 35 35 35 34 32 30 29 27 26 26 26 28 30 32 31 31 32 31 32 32 31 34 40 46 50 50 49 51
26 28 30 32 31 32 35 35 35 35 29 29 35 36 37 38 35 37 44 39 31 34 37 35 34 31 28 27 26 26 29 31 32 28 25 27 30 30 31 31 32 31 30 33 36 36 36 36 33 34 37 37 35 33 32 34 36 37 37 36 34 33 30 29 29 27 26 26 26 29 33 33 31 31 32 31 31 31 32 33 37 43 48 49 49 50
24 26 29 35 34 33 36 37 38 42 39 40 45 45 43 43 41 43 49 44 35 33 33 33 34 31 27 28 29 30 33 36 38 33 26 25 26 27 28 30 31 31 30 31 32 30 30 32 32 32 33 33 33 32 32 35 36 37 37 36 35 34 31 29 28 27 26 25 26 30 33 34 33 32 33 32 31 31 32 34 36 40 45 47 49 50
25 26 27 34 37 37 41 45 46 45 42 46 50 43 36 38 41 44 46 41 35 34 33 32 33 32 31 32 32 34 37 40 43 40 32 27 26 25 25 25 25 27 26 25 26 25 26 29 32 30 29 30 32 33 34 35 36 35 34 34 34 33 32 30 30 29 28 26 27 30 33 34 36 37 37 37 35 34 36 35 35 40 44 46 47 48
29 29 30 36 40 39 42 46 41 37 42 51 50 39 32 34 42 52 54 45 39 37 34 32 34 35 35 36 36 37 38 39 41 41 36 30 27 25 25 24 24 24 24 22 23 24 26 29 29 28 28 29 31 33 33 33 34 33 33 33 33 34 34 34 33 31 29 27 27 30 32 33 35 38 41 43 41 40 41 39 37 39 44 46 46 46
38 39 39 41 42 38 41 45 37 34 45 51 45 37 33 33 42 53 53 45 40 37 32 32 35 35 35 36 37 37 37 35 35 34 32 29 28 26 25 25 25 24 23 22 23 25 27 28 28 28 29 30 30 30 31 32 33 33 33 33 34 35 35 35 34 33 30 28 27 29 31 32 32 36 41 45 45 44 43 43 41 41 44 45 45 46
43 46 44 43 42 38 38 41 38 40 51 51 39 33 33 37 45 47 42 39 39 35 32 33 35 34 35 36 36 36 35 33 32 31 30 29 29 30 28 27 26 25 24 24 25 25 26 26 26 27 28 29 30 30 30 31 32 32 33 33 33 34 34 34 34 33 31 30 28 28 31 32 33 37 42 46 50 49 46 46 46 45 46 47 50 54
39 45 44 39 39 38 40 44 45 48 51 46 38 36 37 40 43 40 36 36 34 31 32 33 32 33 36 37 37 37 36 34 33 33 32 31 30 31 30 28 27 27 27 26 25 24 24 24 24 24 24 24 26 28 28 29 30 31 33 34 33 33 33 32 33 33 32 31 30 30 33 35 35 38 43 49 54 54 52 51 48 46 49 53 61 69
35 41 40 35 37 42 46 45 43 43 39 34 34 37 36 35 35 34 35 34 31 30 32 31 31 32 33 35 37 37 36 36 34 32 32 32 31 29 29 28 28 28 28 28 26 25 25 24 24 24 24 23 23 25 27 29 30 31 32 34 34 34 33 32 32 32 32 32 32 32 35 38 39 39 41 47 54 56 55 55 52 50 56 65 73 80
29 31 33 33 36 40 41 37 32 30 26 24 27 30 28 27 27 28 30 31 29 28 28 29 31 31 31 33 36 35 35 34 33 32 32 31 30 29 28 27 27 27 27 27 26 25 25 25 24 24 24 25 24 25 27 28 30 31 32 33 34 34 34 32 31 32 32 32 33 34 35 39 41 41 40 46 52 53 53 56 58 61 69 78 82 81
24 26 28 31 32 33 32 28 24 24 23 23 24 24 23 24 23 23 25 26 25 25 25 27 30 29 29 31 32 32 32 31 30 30 30 29 28 28 27 27 26 26 25 25 25 25 24 24 24 25 26 26 26 28 29 30 31 33 35 36 36 37 37 35 33 33 33 32 33 34 34 35 37 40 41 46 51 52 53 61 71 75 79 83 81 75
26 30 30 32 34 36 34 27 22 23 25 23 22 21 20 21 20 20 22 23 23 24 25 27 28 28 29 29 29 29 29 27 26 27 26 26 26 25 24 25 24 24 24 23 23 24 24 23 24 26 27 29 30 32 33 33 33 34 36 38 40 39 40 41 40 39 40 40 40 39 38 37 38 40 41 43 50 58 66 76 84 84 81 80 74 67
29 33 31 29 31 34 33 26 21 22 22 20 20 20 19 19 20 20 22 24 25 25 25 25 26 27 27 27 27 26 26 25 25 25 24 23 23 22 21 22 22 22 23 23 22 23 25 25 27 29 30 31 33 33 33 31 31 30 31 33 35 36 38 41 41 40 41 41 40 41 41 42 44 46 45 47 57 69 76 82 87 86 81 77 71 60
28 30 28 29 31 31 29 25 23 24 23 21 20 21 21 23 26 27 28 29 28 28 28 28 28 28 29 28 27 27 28 27 26 26 25 22 21 21 21 22 23 24 25 26 26 27 29 31 32 33 34 35 36 36 36 33 31 28 27 27 29 33 36 38 38 36 35 35 36 39 41 44 49 52 53 60 73 81 81 82 85 81 72 65 60 51
28 28 27 30 35 35 30 26 27 31 33 29 26 27 29 32 35 36 36 35 34 34 35 36 36 37 37 36 35 36 38 38 35 31 28 25 23 24 24 25 27 28 28 30 31 33 35 37 38 39 40 39 39 38 37 36 34 31 29 28 28 31 34 36 37 37 37 38 39 40 43 49 55 57 60 71 83 85 82 81 77 66 56 50 47 45
28 30 29 32 36 35 31 28 32 39 42 38 35 36 36 37 39 41 41 41 41 43 44 46 45 44 43 42 41 41 43 44 44 43 40 36 33 31 31 32 33 34 35 36 37 38 40 42 43 44 43 41 40 38 38 38 38 37 37 36 35 36 38 40 42 43 45 46 46 46 50 56 60 62 68 76 79 74 71 69 62 52 48 48 48 46
Wind_Speed
4 5 8 6 1 2 3 4 7 8 9 7 5 6 7 5 9 9 8 7 4 5 10 11 9 11 10 6 6 6 6 8 8 9 8 8 8 8 10 10 13 15 14 15 17 19 22 23 22 21 20 19 17 17 18 17 17 15 14 14 13 12 11 9 8 7 6 6 6 5 5 5 5 4 4 5 5 5 5 4 4 4 3 2 2 1
2 7 8 1 6 6 4 4 5 7 6 7 8 6 7 7 6 5 6 7 4 6 9 10 8 9 10 8 6 5 8 10 10 10 10 10 10 8 10 10 10 13 13 16 19 20 25 24 21 19 18 19 18 18 19 18 17 15 14 14 13 13 11 9 7 6 5 5 5 5 5 5 5 5 5 6 6 6 5 5 5 4 4 3 3 2
7 9 5 4 5 2 1 3 5 7 8 7 8 7 7 7 5 3 6 6 5 5 9 9 8 9 12 11 8 7 9 10 10 10 10 11 10 9 9 8 8 11 13 15 18 20 24 23 20 17 17 18 18 18 19 18 18 16 15 14 13 13 12 10 7 6 6 5 5 5 5 5 6 6 7 8 7 6 6 6 6 5 5 4 3 3
5 4 4 7 3 2 3 5 6 7 8 8 8 8 7 8 8 2 5 6 4 4 9 9 6 6 9 9 8 9 10 8 6 7 9 10 10 9 9 8 8 10 11 13 14 16 19 20 19 17 16 17 18 18 18 19 19 17 16 15 15 14 13 11 9 7 6 7 7 7 7 7 8 8 8 8 8 7 7 7 6 6 6 5 4 3
5 4 7 5 2 5 7 6 8 7 7 9 9 9 8 8 8 5 3 4 4 6 8 9 7 6 9 12 11 10 9 7 6 8 9 9 9 9 8 7 6 8 10 12 13 12 13 17 19 19 18 18 18 18 19 20 19 18 18 17 16 15 14 13 11 9 8 9 9 9 9 8 9 9 8 8 7 6 6 7 7 6 6 5 5 4
4 6 5 3 4 7 8 7 9 8 7 8 10 10 11 9 6 5 4 5 6 7 8 8 8 7 10 14 12 8 8 9 9 11 12 11 11 9 8 7 7 7 7 8 11 11 12 15 19 20 20 20 19 19 20 20 20 19 19 18 17 16 15 15 14 11 10 10 10 11 10 9 9 8 8 7 7 6 6 7 6 6 6 6 6 6
2 5 3 4 6 9 8 9 9 8 8 7 5 8 10 10 7 8 8 7 7 5 5 7 8 7 7 8 8 8 9 11 10 10 11 11 11 10 9 9 8 7 6 6 9 11 13 14 16 19 21 22 21 20 20 20 21 20 20 20 19 17 17 17 16 14 12 11 11 11 10 10 9 9 8 8 8 7 7 7 7 7 7 6 7 6
4 4 3 5 8 9 7 9 7 8 8 4 1 5 9 10 9 9 9 8 8 5 5 8 9 8 6 5 6 7 9 10 10 9 10 9 9 9 6 5 5 4 4 5 7 8 10 12 14 17 20 21 21 20 21 21 22 22 21 21 19 18 18 18 18 16 14 13 12 12 11 10 10 9 10 10 9 8 8 8 7 7 7 7 7 6
4 5 5 8 9 7 9 9 7 8 8 2 1 6 8 10 10 9 9 8 8 7 6 9 9 8 8 6 6 8 9 10 10 10 9 7 6 5 3 2 2 2 2 3 4 5 6 10 14 16 18 19 20 21 22 22 23 23 22 21 20 19 18 19 20 18 15 13 14 13 11 11 10 11 11 10 10 9 9 9 8 8 7 7 7 7
4 4 5 8 8 7 11 8 5 6 7 1 3 8 8 9 9 8 8 8 7 7 8 9 8 7 7 5 6 8 9 11 9 7 6 5 4 2 2 1 1 1 1 2 3 3 4 7 11 14 16 18 20 21 22 22 23 24 24 22 21 19 18 20 21 20 17 15 14 14 13 12 12 12 12 11 11 10 9 9 8 8 8 8 8 8
4 4 3 6 8 8 9 6 1 4 7 4 5 9 9 8 7 6 6 7 7 7 10 11 10 8 6 6 6 5 3 4 5 7 5 5 4 3 2 0 0 2 3 3 4 3 2 4 8 12 15 18 20 21 21 22 23 25 25 25 24 21 19 20 21 21 18 16 15 14 14 14 13 13 13 12 11 10 10 9 9 8 8 8 8 8
6 8 6 7 8 8 8 6 5 8 8 7 8 8 7 6 6 6 6 6 7 8 9 9 9 8 7 7 3 4 4 1 4 7 6 4 2 3 3 3 4 5 5 6 6 5 4 4 6 11 15 17 19 21 22 22 24 25 26 27 27 24 21 21 22 22 20 17 16 15 15 15 15 14 14 13 13 12 11 10 9 9 8 8 8 8
7 10 9 8 7 7 9 8 7 8 8 8 8 7 6 6 5 6 6 6 8 7 3 4 6 7 7 7 2 6 7 5 3 3 5 4 2 4 3 4 5 5 5 5 6 5 5 4 4 9 13 16 18 20 21 21 23 24 24 26 27 26 24 23 23 23 21 19 17 16 16 16 15 15 14 14 14 14 13 12 11 10 9 9 9 9
7 9 10 8 6 7 9 8 6 6 7 9 8 6 6 5 6 8 7 6 7 5 2 1 3 5 7 5 4 8 7 7 6 4 5 5 4 3 3 4 4 5 6 6 6 6 5 4 2 5 9 13 16 18 19 20 21 21 22 25 26 26 25 24 24 24 22 20 18 16 16 17 16 16 15 14 15 15 14 14 13 11 10 10 9 9
6 5 6 5 4 6 9 10 7 4 5 8 8 7 7 6 6 7 6 6 6 3 4 3 2 5 6 1 4 6 7 7 7 8 6 5 4 3 3 4 5 6 7 6 6 7 5 4 1 3 7 11 14 16 17 18 19 19 20 23 25 25 25 24 24 25 23 21 19 18 17 17 17 17 16 15 15 15 14 14 15 13 12 11 11 11
8 4 6 5 2 4 8 8 8 8 5 6 7 8 7 6 6 6 6 6 4 4 4 5 4 4 2 5 5 6 8 8 8 8 8 6 5 4 4 4 5 6 7 6 6 7 6 4 2 2 6 9 11 13 15 15 15 16 17 20 23 23 23 23 23 24 24 22 20 19 19 18 17 17 17 16 15 16 15 14 15 14 13 13 13 12
7 4 7 6 6 7 6 4 5 7 5 3 5 7 7 6 6 7 7 4 2 6 7 6 7 5 3 7 8 8 9 9 9 9 8 7 7 5 4 5 5 7 7 7 7 7 7 6 3 2 5 6 8 10 12 13 13 13 14 17 20 20 20 20 21 22 23 22 20 20 19 19 18 17 17 16 16 16 15 15 15 15 14 15 15 15
5 5 2 6 9 7 3 6 7 8 8 6 5 4 5 7 6 5 6 4 5 8 7 7 9 8 6 5 8 11 10 9 9 9 8 7 7 6 6 6 7 7 8 8 8 7 7 7 6 4 4 6 7 9 10 10 10 11 12 14 17 18 17 18 18 19 20 20 19 19 19 19 18 17 16 15 15 16 16 15 15 15 15 15 16 17
2 6 7 8 8 5 4 7 9 9 11 10 8 5 5 6 6 5 6 6 7 8 6 8 10 9 7 4 8 11 11 10 10 9 9 9 7 7 7 8 8 8 7 7 8 7 7 7 7 6 5 7 9 9 10 9 8 9 10 11 14 15 15 15 15 15 16 18 17 17 17 18 17 16 16 15 14 15 16 16 16 15 16 16 16 17
1 6 6 5 5 3 3 6 8 8 10 11 10 8 6 6 6 6 5 5 7 8 7 8 9 6 5 4 7 10 11 11 11 9 9 8 7 7 6 7 8 7 7 7 7 8 7 8 8 8 7 7 9 10 10 9 8 9 9 9 11 12 12 11 12 12 13 14 15 14 14 15 15 14 14 14 14 15 15 15 16 16 16 16 17 18
2 5 6 6 5 5 5 6 7 7 6 7 8 8 8 7 6 6 6 7 7 8 7 7 8 5 2 0 4 7 9 10 10 9 7 8 9 8 7 8 8 8 8 7 8 8 8 8 9 9 8 8 11 12 12 10 9 8 8 8 8 9 11 11 10 10 10 10 11 13 12 12 12 13 14 14 14 15 16 16 16 16 16 17 17 18
4 5 6 7 7 7 7 3 4 8 7 6 6 6 6 6 6 7 8 7 7 8 8 7 8 5 1 2 2 4 7 9 10 9 8 9 10 9 9 9 8 9 8 8 8 8 8 9 10 11 11 11 12 14 14 12 10 9 8 7 6 5 6 8 9 9 9 9 9 11 11 10 10 11 15 16 16 15 15 16 17 17 17 18 19 19
2 4 6 8 8 10 12 6 3 6 9 10 9 8 8 7 6 8 8 7 6 8 8 8 9 4 3 1 3 5 5 7 8 8 9 9 10 10 9 9 9 9 9 8 8 8 8 10 12 12 13 13 14 14 14 13 12 11 10 10 9 7 5 2 2 5 7 7 8 8 8 9 10 11 15 19 20 18 16 16 17 17 17 18 19 20
2 4 7 8 8 11 15 12 9 7 8 11 11 9 10 10 9 9 9 8 7 8 8 8 8 3 3 1 1 1 3 5 6 7 9 9 9 10 10 10 9 9 9 8 7 7 8 9 11 11 12 13 13 14 14 14 13 12 12 12 12 11 9 7 4 2 3 5 6 6 7 8 9 11 14 18 21 21 20 19 18 17 18 17 17 18
1 5 6 7 8 7 9 11 10 9 7 7 9 11 13 13 12 10 10 8 8 11 11 9 9 3 2 1 2 4 4 6 7 8 10 10 8 9 9 9 9 9 9 9 8 8 7 8 8 9 10 11 11 12 12 12 12 12 12 12 11 11 10 9 8 7 4 2 1 2 4 5 7 10 14 15 17 18 18 17 16 17 18 18 17 18
3 6 5 6 8 7 7 7 4 4 5 5 8 12 14 11 10 9 8 8 9 12 12 11 9 3 4 4 4 5 6 8 8 8 9 9 9 9 8 8 8 8 8 9 9 8 7 7 7 8 9 9 9 10 10 10 11 11 11 11 9 8 9 8 8 9 8 5 4 4 2 1 4 9 11 13 16 18 17 14 14 16 18 18 18 19
5 6 8 10 10 9 10 10 9 8 7 8 10 12 11 9 9 9 8 9 10 10 11 11 11 8 5 7 7 6 7 8 8 7 7 7 9 9 8 8 7 7 8 8 8 8 7 7 8 8 8 7 8 8 8 9 10 10 10 10 9 8 8 7 6 7 7 5 6 7 5 3 1 4 5 7 11 13 14 13 14 16 17 18 19 19
5 7 10 13 14 14 15 16 17 15 14 13 13 14 13 13 13 11 10 11 12 10 11 11 12 12 10 9 8 7 7 8 7 6 7 6 8 8 8 9 8 8 8 7 7 8 8 8 7 7 7 7 7 7 7 8 9 9 9 9 9 8 7 6 5 6 6 6 5 4 3 1 1 2 3 4 5 7 10 12 14 16 17 19 21 21
6 8 10 13 15 16 17 17 17 17 16 16 16 17 17 17 17 16 14 16 14 12 12 13 13 13 11 10 9 7 7 8 8 8 7 7 8 8 9 9 9 8 8 8 7 7 7 7 7 6 6 5 6 6 6 7 7 7 7 7 8 7 7 6 6 5 5 5 4 2 1 1 1 2 3 4 5 6 8 10 12 14 16 18 20 19
4 7 9 12 14 15 16 17 17 17 17 18 19 19 19 19 20 19 18 19 18 17 17 18 17 16 11 10 12 10 6 6 7 7 8 8 9 9 9 9 9 9 9 7 7 7 7 7 7 7 6 5 4 5 5 5 5 6 6 6 6 6 6 5 5 5 4 3 3 2 2 1 1 2 3 4 6 6 7 8 10 12 14 15 17 17
3 5 7 9 11 13 15 16 17 18 18 19 20 21 20 20 20 20 19 18 18 18 18 17 15 13 10 10 13 13 11 11 11 11 10 10 11 11 11 11 10 10 9 8 7 7 7 7 6 6 6 5 4 4 4 3 3 4 5 5 4 4 4 4 4 4 3 3 3 3 3 3 3 3 4 5 5 6 7 8 9 11 12 13 14 15
4 6 8 9 10 11 12 15 17 18 19 20 21 21 21 19 18 17 17 16 15 15 16 15 12 10 9 9 11 13 14 15 15 14 13 12 12 13 13 12 10 9 9 9 8 7 7 7 6 5 5 4 3 3 3 2 1 3 4 3 3 3 3 3 2 1 2 2 3 4 4 4 4 5 5 5 6 6 7 7 8 10 11 12 12 13
6 7 8 8 9 11 13 15 15 14 15 15 13 14 18 19 19 19 19 18 18 15 14 13 12 11 9 8 9 11 13 14 13 12 12 11 11 12 12 11 10 9 9 9 9 8 7 6 6 6 4 2 2 2 2 2 2 2 2 2 2 2 2 1 1 1 1 2 3 4 4 5 5 5 5 5 6 7 7 8 9 9 10 11 10 11
9 9 8 8 9 11 13 14 12 12 13 9 4 6 10 13 15 17 16 16 16 13 11 12 12 12 11 10 10 12 12 12 10 8 8 7 7 9 11 11 11 9 8 8 7 7 6 5 5 5 3 2 1 1 2 1 0 1 0 0 1 1 2 2 2 2 3 4 4 4 5 5 5 5 6 6 7 8 9 9 10 9 9 10 10 11
9 9 8 8 8 10 11 11 11 12 11 6 2 3 5 6 8 11 13 14 13 11 11 13 13 12 11 11 11 11 10 11 9 7 6 5 5 6 9 10 9 8 8 8 6 5 5 4 3 3 2 1 1 1 2 1 1 1 2 1 1 2 2 3 3 4 4 5 5 5 5 5 6 6 7 8 8 9 10 10 10 10 10 10 11 11
9 9 8 8 9 9 9 9 11 11 8 5 5 5 3 4 7 9 11 12 9 8 9 11 11 10 9 9 10 8 9 10 9 5 3 3 2 4 7 7 7 8 8 6 5 3 2 1 2 1 1 1 2 2 3 2 2 2 3 3 3 3 3 4 4 5 5 6 6 6 5 5 7 7 8 9 9 10 10 11 11 11 11 11 11 11
9 9 8 8 9 8 9 10 10 11 11 8 5 1 2 4 6 6 8 10 7 4 6 8 8 8 8 9 10 8 8 9 8 4 2 3 3 4 4 3 0 5 8 6 4 3 3 3 3 2 1 2 3 4 4 4 4 4 5 5 5 5 5 5 5 6 6 7 7 6 6 7 7 8 9 9 10 11 11 11 11 11 11 12 12 12
10 10 8 8 8 7 9 10 9 10 10 4 3 5 4 4 5 4 7 8 4 2 4 6 8 9 9 8 9 8 7 8 7 2 2 1 2 3 4 4 3 1 5 5 4 6 6 4 3 2 3 4 5 6 6 6 5 6 7 7 7 7 7 7 7 7 8 8 8 7 8 8 9 9 10 10 11 11 12 12 12 12 11 12 13 13
10 9 8 8 8 7 8 8 8 9 5 3 5 4 5 5 6 5 7 6 2 5 7 8 8 9 9 8 8 8 7 7 4 1 2 3 2 2 3 3 3 3 4 6 7 7 6 5 4 6 7 7 7 7 6 7 8 9 9 9 9 9 9 8 8 9 9 10 10 10 10 10 10 10 10 11 11 11 12 13 13 13 13 13 13 14
9 7 7 9 9 9 9 8 8 7 2 4 3 3 4 5 5 5 6 2 4 5 7 8 8 9 9 9 8 7 8 7 3 3 3 5 6 5 5 5 5 6 7 9 9 8 7 7 8 9 9 8 8 8 8 9 10 10 11 11 11 11 11 10 10 11 12 12 12 12 12 12 12 12 11 11 11 11 12 13 14 14 14 14 14 14
6 5 6 8 8 9 10 9 8 5 1 5 3 4 5 4 3 5 5 3 4 6 7 7 9 9 9 9 8 7 8 7 6 6 6 7 7 8 9 9 10 11 11 11 11 10 10 11 11 11 10 10 11 11 10 11 11 12 13 13 12 12 12 11 12 13 13 14 14 14 14 14 13 13 13 12 12 12 12 13 14 15 14 14 14 14
5 5 6 7 8 8 8 8 9 5 3 7 6 5 6 5 5 4 5 5 7 9 9 9 10 10 10 10 9 9 10 11 10 10 11 10 9 10 11 13 14 14 14 14 13 12 12 13 13 13 13 13 13 12 12 13 13 14 14 14 14 13 13 13 14 15 15 15 15 15 15 15 15 15 14 14 13 13 13 13 15 15 14 13 12 11
4 5 6 7 7 7 8 8 9 5 2 7 8 5 3 4 5 6 8 8 9 10 10 10 10 9 10 10 11 11 12 13 13 12 13 13 13 13 14 15 16 16 16 16 16 15 15 15 15 16 16 15 15 15 14 15 15 15 15 16 15 14 14 15 16 16 17 17 16 16 16 16 17 16 16 15 14 14 14 14 15 15 13 12 10 7
4 5 6 5 3 4 6 7 4 2 2 5 7 6 5 6 8 9 9 10 10 11 10 10 10 11 11 11 12 13 13 14 15 14 14 15 16 16 16 17 18 18 17 17 18 18 18 19 19 19 19 18 17 17 16 16 17 17 17 17 16 16 17 17 17 18 18 17 17 17 17 17 18 17 17 16 14 14 14 14 14 13 10 9 9 10
2 3 6 5 3 5 7 8 7 7 8 9 8 8 10 10 10 11 12 11 11 11 10 10 11 12 12 12 13 14 14 15 16 16 16 16 16 17 19 20 22 22 21 21 22 21 21 22 22 21 20 20 19 19 18 18 18 19 19 19 18 18 19 19 19 19 19 19 18 18 18 18 18 18 17 15 14 14 15 14 12 10 8 8 11 13
3 4 6 6 6 8 10 11 11 11 11 11 10 10 11 12 11 12 12 12 12 12 11 11 12 14 14 15 15 15 16 17 17 17 18 17 17 19 20 22 24 25 25 25 25 25 25 25 24 23 22 22 21 20 19 19 19 20 20 19 19 19 19 20 20 20 20 20 19 19 19 19 19 18 17 15 14 14 13 10 8 9 10 11 12 13
2 4 5 7 8 9 9 9 11 11 11 12 13 13 13 13 13 12 11 11 11 12 12 13 14 16 16 17 17 18 19 20 20 19 18 17 18 19 20 21 24 26 27 27 26 26 26 26 25 23 22 22 21 20 20 20 21 21 20 20 20 20 20 20 20 20 19 19 19 19 19 20 19 18 17 15 14 12 7 6 9 10 11 13 14 15
2 4 4 8 9 9 10 11 13 14 14 13 12 11 11 12 13 13 12 12 13 14 15 16 17 17 16 17 19 20 21 21 21 20 19 18 18 19 19 21 24 26 27 28 28 27 26 25 25 24 23 23 22 22 22 23 23 24 23 22 22 22 22 21 21 21 21 20 20 19 19 19 18 17 17 14 10 7 6 8 10 11 12 15 18 18
5 5 7 8 8 9 10 12 12 12 12 12 12 11 12 13 14 15 15 15 16 17 18 19 19 19 18 19 20 20 22 22 21 21 21 19 18 18 20 23 26 26 26 27 27 26 25 25 25 25 25 24 23 23 23 24 25 25 25 25 24 23 23 23 23 24 24 23 21 20 18 17 16 16 15 10 6 7 7 9 12 13 12 13 17 18
7 7 7 7 8 8 9 10 11 10 10 11 13 14 15 15 16 17 17 17 18 18 17 18 18 18 19 19 18 18 19 19 20 21 21 19 19 21 24 25 26 27 27 26 26 26 25 26 26 26 26 25 24 24 24 24 25 25 26 25 24 24 24 24 23 24 24 22 22 21 18 16 16 15 13 9 12 14 13 13 15 16 18 19 20 20
4 6 7 7 8 9 11 13 12 10 10 12 14 16 15 15 15 17 17 17 17 17 17 17 17 17 16 17 18 18 17 17 19 20 19 19 21 24 26 26 25 25 25 25 25 25 25 25 26 26 26 26 25 25 25 25 26 26 26 25 24 24 24 23 22 22 21 21 21 20 18 16 16 15 12 14 18 20 22 23 22 20 22 23 22 21
Wind_Direction
240 239 230 232 232 50 37 0 348 339 334 323 285 265 258 224 216 213 130 115 245 247 240 226 211 245 245 219 216 187 204 233 218 202 204 218 217 211 217 199 181 177 171 182 183 180 197 199 184 174 170 167 163 161 161 161 162 158 156 156 153 156 156 157 166 163 161 153 142 143 133 124 116 108 108 92 77 85 88 74 75 74 74 91 92 129
243 250 243 236 50 39 13 351 330 308 296 279 268 259 250 242 231 217 137 135 201 245 250 234 222 253 250 228 225 201 213 230 219 206 206 209 214 214 216 217 190 160 167 189 182 186 202 195 178 170 167 170 170 166 166 167 166 162 162 160 155 157 159 163 169 161 157 145 140 143 134 129 122 111 112 108 91 88 89 71 64 63 61 66 61 61
220 241 229 102 61 37 342 292 273 268 266 255 251 253 245 234 232 119 120 161 191 232 254 238 220 242 245 232 218 205 219 228 218 210 209 206 210 214 210 216 206 176 175 179 169 183 200 189 174 168 167 172 173 171 171 171 170 166 166 165 160 159 159 162 161 158 155 138 129 128 124 122 112 93 86 95 98 91 86 74 68 66 62 65 67 72
233 227 140 109 93 226 217 234 242 245 246 245 241 246 246 232 236 202 145 193 218 245 274 277 249 243 250 235 209 210 222 219 208 210 214 212 208 213 216 210 211 204 184 167 165 184 192 183 176 174 173 174 175 177 178 177 176 173 172 170 164 162 159 158 157 157 149 134 125 118 113 108 105 104 98 101 102 93 87 81 75 74 70 66 65 60
265 81 101 114 152 225 231 216 228 246 235 230 238 249 258 246 252 269 164 180 227 238 258 275 265 243 242 232 214 208 212 208 201 204 207 210 207 208 221 222 219 222 205 181 177 186 190 186 184 182 180 179 179 181 182 182 180 178 177 172 166 163 159 157 158 156 149 142 133 127 124 116 112 119 125 121 112 103 98 91 82 79 77 70 67 61
255 89 113 185 205 228 242 227 220 242 252 231 220 237 267 274 264 253 197 185 235 232 209 228 249 246 235 229 221 201 197 211 206 201 200 194 197 199 204 215 221 228 226 203 186 190 201 196 191 189 185 184 185 185 183 182 182 180 177 173 167 163 160 158 158 158 158 155 148 145 144 140 138 140 139 130 121 115 106 100 94 86 82 78 73 72
136 113 175 202 228 232 236 245 223 218 257 259 199 207 249 267 252 239 231 220 249 252 168 200 251 263 241 227 217 195 197 209 198 200 207 193 190 199 197 196 201 204 211 221 209 200 204 202 198 197 192 190 188 184 182 180 181 180 176 174 169 164 162 160 161 162 164 164 161 160 157 152 151 145 135 128 122 116 111 109 105 97 93 89 84 81
140 156 196 198 230 234 232 246 216 203 249 280 130 200 230 247 236 231 241 237 253 261 167 195 240 263 260 234 197 190 202 205 190 197 214 201 193 199 201 195 193 191 185 211 221 207 203 206 206 203 198 196 190 183 180 179 181 179 176 173 169 166 165 163 163 165 170 171 167 168 165 159 155 143 134 133 127 121 119 120 116 111 108 99 95 92
175 188 199 210 225 231 242 240 180 195 243 255 270 250 243 245 232 224 239 241 251 260 230 217 229 249 253 228 179 182 210 219 202 197 204 203 200 192 192 204 187 193 223 226 231 225 217 217 215 208 202 200 193 186 183 181 179 177 174 172 170 169 167 165 165 168 175 176 171 174 171 163 156 146 143 142 135 131 129 128 124 120 114 106 103 100
182 198 214 223 228 230 247 252 152 192 244 277 287 262 253 250 236 227 241 249 252 252 254 245 228 240 255 237 196 189 220 237 214 193 187 177 180 166 151 206 202 195 243 261 255 243 237 237 232 219 205 199 195 191 186 182 177 174 172 169 170 171 168 168 168 169 177 179 175 178 176 167 158 153 155 149 142 142 139 137 134 130 123 117 114 110
158 173 237 241 244 254 268 291 348 242 267 286 265 247 241 244 241 237 241 254 258 240 243 245 231 234 253 248 223 189 218 253 186 164 157 147 147 121 98 176 333 6 354 336 324 322 303 265 247 231 212 198 194 192 186 181 176 173 171 169 171 172 170 171 170 171 178 180 180 181 178 171 162 160 161 154 151 153 149 147 145 141 134 129 125 121
187 187 210 217 231 257 270 264 226 233 253 255 246 239 234 233 231 238 237 235 247 248 245 240 225 222 241 257 234 144 135 136 150 157 151 135 108 79 51 22 25 11 356 347 340 337 330 303 257 233 216 200 192 188 185 182 178 175 173 171 171 172 172 173 173 174 178 181 183 183 179 175 167 166 166 161 161 161 158 158 155 150 144 140 139 135
224 217 207 192 200 234 249 239 209 209 230 237 234 235 238 233 223 234 236 227 239 252 253 230 221 221 244 262 198 137 148 146 144 146 131 122 75 63 46 25 29 15 3 360 353 346 336 319 263 227 212 199 192 190 187 183 179 178 177 176 174 172 172 174 174 176 179 182 184 184 181 178 173 172 173 170 168 168 167 166 162 160 157 153 152 150
227 218 199 189 185 208 235 239 211 195 216 233 233 231 236 235 235 241 239 234 239 240 226 210 227 239 255 259 147 138 135 128 134 124 106 108 90 67 37 28 34 29 24 16 9 6 355 334 266 214 204 198 194 197 194 185 182 183 183 182 178 174 172 173 175 177 180 183 185 185 184 181 179 179 180 179 176 176 175 170 168 168 165 164 165 162
256 225 192 199 157 177 225 245 254 250 227 236 241 237 243 248 247 253 257 259 263 248 207 174 186 249 252 213 123 135 138 137 139 130 120 120 111 91 56 41 37 38 36 29 26 21 11 0 337 193 198 201 197 201 199 191 187 187 186 185 181 175 173 174 176 178 180 183 185 187 187 186 185 184 185 187 183 183 182 176 173 173 170 170 171 169
273 254 168 173 160 194 232 245 265 276 249 237 245 237 241 250 251 261 268 273 299 301 245 199 215 260 188 143 151 149 152 154 147 141 141 136 120 102 78 60 44 43 43 38 37 27 26 37 40 169 192 199 197 200 200 193 190 188 186 185 182 178 175 175 177 179 181 182 185 188 189 191 191 189 190 191 188 187 188 182 177 177 176 173 172 171
265 256 138 158 211 221 243 262 254 260 261 251 242 243 253 255 256 264 259 233 222 264 259 232 236 244 178 170 172 168 167 159 158 164 155 137 127 115 89 73 58 51 48 48 51 37 30 47 74 129 168 180 184 190 192 189 187 186 186 187 185 183 180 179 179 180 182 183 187 191 192 193 195 195 195 195 192 188 189 187 183 182 180 177 175 172
270 275 212 218 227 196 208 277 257 247 262 271 254 261 273 258 254 267 263 245 238 252 252 239 244 242 233 208 172 180 189 175 177 178 156 147 141 120 100 88 75 64 60 58 64 59 42 44 59 91 135 151 158 166 171 176 178 182 186 187 186 186 184 184 183 182 184 186 190 194 195 196 199 200 200 200 196 190 189 191 190 188 186 181 178 174
275 273 259 244 239 185 176 250 256 240 237 250 270 294 286 258 251 251 254 259 260 263 262 253 254 250 249 228 172 190 203 188 186 180 161 162 150 119 107 100 88 76 71 65 66 69 64 58 61 70 95 124 136 139 145 153 157 166 174 178 184 186 185 186 186 184 186 190 194 198 199 202 203 204 204 204 200 194 194 197 196 195 191 186 183 178
253 267 267 246 234 218 216 235 248 240 222 228 256 269 262 261 269 262 255 259 259 262 267 266 264 257 253 225 177 194 208 193 184 180 170 158 136 119 108 100 92 84 76 73 71 72 75 76 75 75 79 99 107 106 114 122 129 144 156 166 179 182 181 183 183 183 187 192 198 202 204 207 209 212 215 214 209 203 201 204 205 202 196 191 189 185
253 259 271 264 238 230 244 240 252 266 243 226 241 246 243 247 260 268 262 259 263 267 268 269 267 260 258 201 177 193 203 193 181 179 170 144 127 119 108 101 97 92 85 80 79 78 82 87 91 95 93 87 85 84 88 91 101 127 145 159 171 178 185 186 179 177 184 191 201 208 211 212 210 213 221 228 230 221 211 212 215 209 202 199 197 192
259 258 261 266 258 246 252 262 292 300 299 278 266 264 259 253 252 260 258 254 260 268 270 275 275 277 29 69 231 219 200 187 180 177 163 139 129 121 113 109 105 102 98 91 87 83 82 86 89 93 92 85 82 84 87 89 95 111 124 133 144 162 191 197 192 192 195 195 201 209 214 217 218 218 220 227 238 237 222 217 222 220 213 208 205 199
352 287 268 264 263 267 274 278 271 286 291 284 277 276 278 274 265 264 266 271 272 267 269 274 274 284 60 72 254 249 210 182 177 173 156 139 131 127 124 118 111 108 105 99 95 91 88 87 87 87 86 84 85 88 92 93 95 101 103 102 103 97 87 101 190 207 207 204 205 209 213 222 233 239 234 231 235 241 238 228 225 228 224 216 211 208
96 260 259 263 262 265 269 262 242 238 262 269 264 262 265 264 265 271 277 285 284 272 268 268 266 260 78 38 253 201 180 163 167 171 155 142 136 135 133 126 121 119 114 108 105 101 99 96 92 90 88 86 87 89 92 94 94 95 93 91 93 94 90 83 80 117 193 206 210 214 219 228 240 250 250 243 238 239 240 236 230 232 234 227 219 217
193 250 247 260 264 255 250 248 240 231 239 259 260 255 254 260 272 280 281 282 272 265 264 265 268 261 122 195 154 134 159 162 167 175 159 150 151 147 141 135 133 129 123 118 112 106 103 98 93 93 93 94 94 93 94 96 96 93 88 86 86 87 91 94 92 92 95 108 158 213 235 241 255 260 254 253 254 249 242 238 235 233 236 233 225 222
268 268 263 262 263 260 253 253 259 258 257 273 276 262 253 259 278 283 277 270 260 263 265 262 268 265 142 183 186 171 193 188 179 182 172 162 161 155 146 142 140 136 132 126 118 111 104 98 94 91 91 95 100 102 104 103 100 95 91 90 88 87 89 89 93 100 101 102 108 96 65 282 262 261 251 246 254 256 247 239 238 235 236 236 229 223
265 263 263 263 263 269 276 285 305 314 296 284 287 279 263 256 266 270 267 262 264 273 269 261 270 273 230 216 211 202 218 213 187 187 197 180 163 157 152 149 149 145 139 133 127 122 112 104 98 93 89 90 94 98 101 101 100 99 100 99 94 88 86 86 92 102 102 98 93 88 80 74 258 264 257 244 246 252 249 245 246 243 240 241 239 233
263 256 254 260 263 268 275 282 288 288 281 278 280 278 271 262 258 257 259 266 275 278 267 265 277 279 271 264 248 218 218 230 219 211 223 201 167 164 163 158 159 156 151 145 137 130 122 112 104 96 93 92 92 92 91 91 92 94 96 97 94 87 83 81 80 84 87 81 71 76 102 111 308 288 297 291 273 267 262 258 257 250 244 243 242 240
264 259 256 261 262 263 266 270 273 273 273 273 271 270 271 269 264 261 261 266 271 268 268 280 287 282 284 292 277 243 220 237 242 233 234 219 189 181 178 177 179 176 168 154 140 133 127 119 112 103 96 91 92 95 94 93 92 92 90 86 85 83 78 72 65 62 69 79 78 67 96 103 306 287 292 287 272 263 262 263 263 257 251 248 244 241
268 266 264 268 270 270 269 269 270 271 271 270 267 265 265 264 263 262 261 263 265 265 269 279 283 281 282 287 282 275 271 274 264 244 236 225 208 199 195 200 205 201 193 172 149 141 132 124 122 117 109 93 84 84 84 83 87 93 91 82 77 74 68 61 54 49 45 43 45 20 350 358 313 276 261 256 256 258 261 262 262 260 255 253 250 246
237 266 273 277 276 274 275 279 276 271 271 272 268 265 263 262 261 261 262 263 264 266 270 276 280 280 280 280 277 273 269 269 265 256 244 229 222 222 221 222 221 215 206 183 160 155 146 136 129 122 114 104 93 86 83 77 81 93 87 75 71 65 56 50 38 36 30 12 4 348 330 324 310 292 278 271 271 270 268 263 260 258 255 253 253 252
227 265 276 276 271 269 271 274 274 273 273 270 265 263 262 261 261 261 261 262 264 269 274 276 274 272 277 283 282 275 267 261 257 257 254 243 238 238 233 229 227 220 205 183 170 166 156 142 131 120 114 113 114 109 98 83 74 92 81 61 57 54 46 47 34 15 3 341 329 319 314 309 297 291 288 286 282 277 274 270 263 258 254 252 250 252
248 265 274 271 269 272 272 272 277 280 274 267 268 272 267 262 263 263 260 261 265 267 268 268 267 274 285 292 288 285 280 274 267 266 266 258 247 241 238 236 235 226 206 185 176 168 156 141 128 122 117 117 117 82 56 27 25 59 57 39 49 44 17 1 328 306 310 306 305 306 306 298 290 288 286 284 283 280 273 267 262 256 252 251 247 245
261 267 272 271 270 272 275 281 283 272 260 259 302 318 287 275 274 272 270 271 272 275 280 281 286 293 294 291 287 288 292 295 294 289 283 271 251 244 246 246 240 221 196 180 175 163 150 137 123 117 122 126 102 42 349 329 57 66 342 272 33 352 328 317 306 306 302 296 299 302 297 294 294 295 296 292 289 285 276 268 264 256 250 249 243 237
262 265 265 266 268 271 277 277 265 257 258 264 303 322 310 304 293 286 284 280 278 286 294 293 293 295 292 290 290 291 297 302 298 290 285 272 254 250 250 243 225 197 182 180 174 150 131 137 137 128 141 141 83 289 265 234 174 224 238 230 263 282 289 296 296 298 298 298 302 301 298 301 303 302 301 297 292 288 282 275 268 258 254 254 246 239
258 262 263 262 261 265 267 256 250 263 277 261 235 237 255 276 278 277 277 275 277 290 296 294 295 296 294 293 291 290 299 299 286 282 315 322 292 271 258 242 208 185 180 172 164 151 130 167 188 158 154 251 287 276 272 285 290 272 264 261 261 260 272 286 287 289 293 295 295 292 291 296 298 299 300 298 295 290 283 279 271 262 257 256 251 244
252 255 256 258 258 259 261 256 258 272 272 254 236 270 331 301 297 294 284 283 286 292 300 308 311 306 300 297 297 299 302 292 273 249 68 40 10 338 317 323 231 189 182 163 168 216 239 247 242 226 216 259 279 283 290 292 287 281 276 270 265 266 270 274 275 279 284 285 284 282 282 286 289 293 295 296 295 292 288 285 277 266 259 255 251 246
250 253 254 255 255 255 261 263 262 264 266 255 93 67 42 0 349 337 292 282 279 287 313 317 308 301 298 297 304 308 298 284 272 235 122 99 45 18 352 353 6 243 206 199 229 252 252 250 257 264 270 275 276 277 278 277 275 277 276 271 267 267 270 271 274 278 282 283 283 279 278 280 284 287 289 291 293 293 291 287 278 269 261 256 252 248
246 245 250 254 254 251 255 260 258 258 271 50 72 63 48 25 2 327 278 273 19 34 358 337 320 315 312 303 306 307 289 277 280 30 22 329 334 5 331 313 328 319 280 259 261 266 267 274 288 287 279 273 271 271 271 271 271 270 269 268 266 265 268 271 273 277 281 284 284 281 280 280 282 283 283 284 287 289 287 284 277 268 260 256 255 253
245 241 243 246 248 249 250 255 260 260 281 63 44 355 13 22 359 307 267 277 43 24 353 338 327 326 322 310 303 295 280 281 320 24 350 304 291 290 288 285 289 288 276 266 263 268 277 284 284 279 275 271 269 270 269 266 266 265 264 264 263 262 265 267 270 275 279 282 281 278 278 278 277 278 278 279 281 283 282 279 274 266 258 254 255 254
244 243 247 249 250 250 250 255 260 259 51 60 27 330 328 324 300 276 273 336 359 324 320 324 314 312 313 306 299 289 285 298 327 335 305 279 280 288 288 285 283 280 277 277 280 284 284 283 281 280 278 275 272 271 269 265 262 261 260 259 257 258 261 264 268 272 275 277 277 275 275 276 277 277 276 275 277 278 277 274 270 264 258 253 252 252
251 246 246 248 252 253 254 261 262 259 34 29 356 323 307 283 268 289 319 332 318 310 316 314 305 306 307 300 294 290 293 299 307 308 298 288 288 293 292 288 283 280 280 280 283 285 283 281 282 280 277 275 272 269 267 264 261 260 260 258 257 259 263 265 266 268 269 271 271 270 270 272 272 273 273 273 274 275 274 272 266 260 256 254 254 253
267 262 250 243 250 258 255 256 260 255 23 4 341 330 318 296 306 328 329 314 306 309 309 301 299 302 301 298 296 294 295 297 298 297 296 293 289 284 283 284 283 284 286 286 287 288 288 286 285 283 280 277 274 271 269 266 264 263 261 261 261 262 264 264 264 266 267 268 269 268 267 266 265 266 266 266 267 270 272 271 265 258 253 251 242 221
263 262 266 263 274 274 253 249 271 316 335 322 316 308 303 305 310 313 308 302 302 303 299 295 296 295 294 295 294 291 289 290 290 289 287 285 283 280 278 279 280 281 284 285 286 289 290 287 283 281 279 276 273 271 268 267 267 266 265 264 265 265 265 265 264 265 264 265 265 264 262 260 260 260 259 258 260 265 266 265 261 255 246 229 202 163
263 280 285 285 293 287 271 274 299 310 300 299 300 296 296 299 299 299 297 294 293 292 292 293 292 292 293 293 290 289 288 288 289 288 286 284 284 284 283 282 280 279 279 280 280 282 284 285 283 281 280 277 275 273 270 269 269 269 268 268 267 266 264 263 263 263 262 262 262 261 260 259 258 257 256 255 256 261 263 262 256 244 216 179 161 151
303 311 292 281 287 289 279 277 285 292 294 298 298 296 298 297 294 292 291 288 289 292 293 293 292 291 292 290 287 284 283 284 285 284 283 283 283 283 283 284 283 282 282 282 281 281 280 281 281 281 279 277 275 273 272 271 271 270 271 271 268 266 265 264 262 260 260 260 259 259 260 259 257 257 254 252 255 263 264 251 227 208 187 164 155 159
343 359 305 277 280 284 280 281 289 294 295 296 295 295 295 293 290 290 289 291 295 295 292 292 291 291 289 286 283 282 281 282 282 281 280 279 279 279 278 279 279 280 281 280 281 281 280 278 277 277 276 276 275 273 271 270 269 269 270 270 267 265 263 262 261 259 259 259 257 257 258 258 258 259 256 254 256 258 245 196 179 183 181 171 166 165
18 30 310 279 276 280 286 291 294 292 291 291 291 293 295 296 299 304 305 303 300 295 291 289 287 286 285 282 281 282 282 281 281 281 280 278 278 278 277 276 277 279 280 280 280 280 279 279 278 278 277 277 275 273 271 270 268 267 266 265 266 266 263 260 259 258 257 257 256 255 256 256 257 256 255 254 249 228 190 165 165 174 180 181 175 164
298 303 295 291 286 283 285 291 296 296 294 295 297 302 310 314 313 312 310 303 295 291 290 290 288 286 285 285 285 284 283 283 282 281 280 278 277 277 277 279 280 280 279 281 282 281 281 281 281 281 280 279 277 276 275 273 272 270 268 266 265 263 261 258 257 256 256 257 257 256 255 256 256 254 248 233 183 157 164 170 167 158 151 160 166 159
279 282 293 296 288 283 291 305 315 312 301 298 303 310 314 314 308 303 301 297 295 294 294 293 290 287 285 285 286 284 282 282 282 280 280 279 279 280 280 281 282 281 280 280 281 279 279 279 279 279 278 277 276 274 273 272 272 272 271 268 264 259 258 257 258 258 257 255 254 254 252 252 253 249 233 187 143 133 132 137 145 139 126 127 137 140
284 304 314 304 291 291 299 309 314 308 294 295 303 308 309 308 305 302 303 304 304 305 303 299 296 294 291 289 288 286 285 286 287 285 282 280 280 280 280 280 281 281 282 283 282 281 281 281 281 279 278 277 277 276 275 274 272 270 269 268 265 262 260 258 257 256 252 249 248 248 246 247 246 234 204 160 140 133 125 119 120 120 116 118 124 126